Location: Bjelajci
(45.0103°N, 16.1758°E)
Time: 09:57:22
(UTC+00:00)

Cosmos 2082 Rocket - Pass Details

Date: 14 July 2020
Orbit: 833 x 853 km, 71.0° (Epoch: 07 August)

Event Time Altitude Azimuth Distance (km) Brightness Sun altitude
Exits shadow 02:22:40 11° 237° (WSW) 2,421 3.9 -9.1°
Maximum altitude 02:27:47 38° 305° (NW) 1,275 3.1 -8.5°
Drops below altitude 10° 02:33:06 10° 13° (NNE) 2,488 5.6 -7.8°
Sets 02:35:44 0° 21° (NNE) 3,425 6.6 -7.4°
